Location: Bennemühlen
(52.5740°N, 9.7135°E)
Time: 19:19:43
(UTC+00:00)

ISS - Pass Details

Date: 21 January 2026
Orbit: 413 x 429 km, 51.6° (Epoch: 11 February)

Event Time Altitude Azimuth Distance (km) Brightness Sun altitude
Rises 17:35:49 0° 268° (W) 2,363 1.8 -16.1°
Reaches altitude 10° 17:37:55 10° 267° (W) 1,502 0.4 -16.4°
Maximum altitude 17:41:17 77° 182° (S) 437 -3.8 -16.9°
Enters shadow 17:42:11 45° 105° (ESE) 583 -3.5 -17.0°
